,,,PA_Meas_PMT16A,,PR_Meas_QMR101_102,,RH_Meas_QMH101,,SR_Meas_QMS101,,TA_Meas_QMH101,,GenWind,,GenWind,
date,time,status,PA,status,PR,status,RH,status,SR,status,TA,status,DirAvg,status,SpdAvg,
2010-03-27, 00:00:05,VALID,1001.22,VALID,0,VALID,91.4334,VALID,0,VALID,24.5209,VALID,90,VALID,0.53125,
2010-03-27, 00:01:05,VALID,1001.19,VALID,0,VALID,91.3418,VALID,0,VALID,24.4818,VALID,90,VALID,0.403516,
2010-03-27, 00:02:05,VALID,1001.18,VALID,0,VALID,91.296,VALID,0,VALID,24.4428,VALID,90,VALID,0.308984,
2010-03-27, 00:03:05,VALID,1001.17,VALID,0,VALID,91.3189,VALID,0,VALID,24.4428,VALID,90,VALID,0.214453,
2010-03-27, 00:04:05,VALID,1001.16,VALID,0,VALID,91.3571,VALID,0,VALID,24.4037,VALID,90,VALID,0.0425781,
2010-03-27, 00:05:05,VALID,1001.16,VALID,0,VALID,91.38,VALID,0,VALID,24.4251,VALID,90,VALID,0,
2010-03-27, 00:06:05,VALID,1001.17,VALID,0,VALID,91.3189,VALID,0,VALID,24.3842,VALID,90,VALID,0,
2010-03-27, 00:07:05,VALID,1001.17,VALID,0,VALID,91.3647,VALID,0,VALID,24.3647,VALID,90,VALID,0,
2010-03-27, 00:08:05,VALID,1001.16,VALID,0,VALID,91.3952,VALID,0,VALID,24.3647,VALID,90,VALID,0.096875,
2010-03-27, 00:09:05,VALID,1001.16,VALID,0,VALID,91.441,VALID,0,VALID,24.3452,VALID,91,VALID,0,
2010-03-27, 00:10:05,VALID,1001.14,VALID,0,VALID,91.5478,VALID,0,VALID,24.3647,VALID,91,VALID,0,
2010-03-27, 00:11:05,VALID,1001.16,VALID,0,VALID,91.5402,VALID,0,VALID,24.3647,VALID,91,VALID,0,
2010-03-27, 00:12:05,VALID,1001.16,VALID,0,VALID,91.5707,VALID,0,VALID,24.3842,VALID,91,VALID,0,
2010-03-27, 00:13:05,VALID,1001.16,VALID,0,VALID,91.5173,VALID,0,VALID,24.4037,VALID,91,VALID,0,
2010-03-27, 00:14:05,VALID,1001.16,VALID,0,VALID,91.5478,VALID,0,VALID,24.4037,VALID,91,VALID,0,
2010-03-27, 00:15:05,VALID,1001.15,VALID,0,VALID,91.5097,VALID,0,VALID,24.3824,VALID,91,VALID,0,
2010-03-27, 00:16:05,VALID,1001.11,VALID,0,VALID,91.4639,VALID,0,VALID,24.4037,VALID,91,VALID,0,
2010-03-27, 00:17:05,VALID,1001.1,VALID,0,VALID,91.4715,VALID,0,VALID,24.4037,VALID,91,VALID,0,
2010-03-27, 00:18:05,VALID,1001.08,VALID,0,VALID,91.4639,VALID,0,VALID,24.4037,VALID,91,VALID,0,
2010-03-27, 00:19:05,VALID,1001.05,VALID,0,VALID,91.4868,VALID,0,VALID,24.4019,VALID,94,VALID,0.190234,
2010-03-27, 00:20:05,VALID,1001.07,VALID,0,VALID,91.4944,VALID,0,VALID,24.4037,VALID,95,VALID,0.0121094,
2010-03-27, 00:21:05,VALID,1001.03,VALID,0,VALID,91.4715,VALID,0,VALID,24.4233,VALID,95,VALID,0.271875,
2010-03-27, 00:22:05,VALID,1001.03,VALID,0,VALID,91.4563,VALID,0,VALID,24.4037,VALID,95,VALID,0,
2010-03-27, 00:23:05,VALID,1001.04,VALID,0,VALID,91.4791,VALID,0,VALID,24.4233,VALID,97,VALID,0.592188,
2010-03-27, 00:24:05,VALID,1001.01,VALID,0,VALID,91.4257,VALID,0,VALID,24.4233,VALID,110,VALID,0.732813,
2010-03-27, 00:25:05,VALID,1000.99,VALID,0,VALID,91.3647,VALID,0,VALID,24.4233,VALID,110,VALID,0.418359,
2010-03-27, 00:26:05,VALID,1000.96,VALID,0,VALID,91.3037,VALID,0,VALID,24.4233,VALID,133,VALID,0.251953,
2010-03-27, 00:27:05,VALID,1000.97,VALID,0,VALID,91.2884,VALID,0,VALID,24.4233,VALID,133,VALID,0.464453,
2010-03-27, 00:28:05,VALID,1000.92,VALID,0,VALID,91.2884,VALID,0,VALID,24.4019,VALID,133,VALID,0.375391,
2010-03-27, 00:29:05,VALID,1000.9,VALID,0,VALID,91.2579,VALID,0,VALID,24.4233,VALID,133,VALID,0.273828,
2010-03-27, 00:30:05,VALID,1000.91,VALID,0,VALID,91.1511,VALID,0,VALID,24.4037,VALID,150,VALID,0.447266,
2010-03-27, 00:31:05,VALID,1000.89,VALID,0,VALID,90.9451,VALID,0,VALID,24.3824,VALID,151,VALID,0.683984,
2010-03-27, 00:32:05,VALID,1000.85,VALID,0,VALID,90.7009,VALID,0,VALID,24.3842,VALID,141,VALID,0.832031,
2010-03-27, 00:33:05,VALID,1000.86,VALID,0,VALID,90.4949,VALID,0,VALID,24.3647,VALID,140,VALID,0.701172,
2010-03-27, 00:34:05,VALID,1000.84,VALID,0,VALID,90.2813,VALID,0,VALID,24.3647,VALID,133,VALID,0.569531,
2010-03-27, 00:35:05,VALID,1000.79,VALID,0,VALID,90.06,VALID,0,VALID,24.3647,VALID,132,VALID,0.764453,
2010-03-27, 00:36:05,VALID,1000.75,VALID,0,VALID,89.9151,VALID,0,VALID,24.4037,VALID,131,VALID,0.70625,
2010-03-27, 00:37:05,VALID,1000.77,VALID,0,VALID,89.7472,VALID,0,VALID,24.4037,VALID,131,VALID,0.754687,
2010-03-27, 00:38:05,VALID,1000.7,VALID,0,VALID,89.6251,VALID,0,VALID,24.4037,VALID,131,VALID,0.89375,
2010-03-27, 00:39:05,VALID,1000.72,VALID,0,VALID,89.5412,VALID,0,VALID,24.4233,VALID,131,VALID,0.628125,
2010-03-27, 00:40:05,VALID,1000.69,VALID,0,VALID,89.4573,VALID,0,VALID,24.4233,VALID,131,VALID,0.723437,
2010-03-27, 00:41:05,VALID,1000.68,VALID,0,VALID,89.4115,VALID,0,VALID,24.4428,VALID,131,VALID,0.737891,
2010-03-27, 00:42:05,VALID,1000.69,VALID,0,VALID,89.4039,VALID,0,VALID,24.4428,VALID,131,VALID,0.703125,
2010-03-27, 00:43:05,VALID,1000.69,VALID,0,VALID,89.3886,VALID,0,VALID,24.4019,VALID,131,VALID,0.582422,
2010-03-27, 00:44:05,VALID,1000.68,VALID,0,VALID,89.3428,VALID,0,VALID,24.4428,VALID,131,VALID,0.564062,
2010-03-27, 00:45:05,VALID,1000.69,VALID,0,VALID,89.2742,VALID,0,VALID,24.4428,VALID,131,VALID,0.500781,
2010-03-27, 00:46:05,VALID,1000.69,VALID,0,VALID,89.236,VALID,0,VALID,24.4233,VALID,131,VALID,0.531641,
2010-03-27, 00:47:05,VALID,1000.66,VALID,0,VALID,89.1903,VALID,0,VALID,24.4037,VALID,131,VALID,0.405859,
2010-03-27, 00:48:05,VALID,1000.65,VALID,0,VALID,89.0911,VALID,0,VALID,24.4233,VALID,124,VALID,0.473047,
2010-03-27, 00:49:05,VALID,1000.64,VALID,0,VALID,89.0529,VALID,0,VALID,24.4037,VALID,117,VALID,0.635547,
2010-03-27, 00:50:05,VALID,1000.63,VALID,0,VALID,89.0377,VALID,0,VALID,24.4037,VALID,111,VALID,0.974609,
2010-03-27, 00:51:05,VALID,1000.58,VALID,0,VALID,88.824,VALID,0,VALID,24.3842,VALID,109,VALID,0.919531,
2010-03-27, 00:52:05,VALID,1000.57,VALID,0,VALID,88.7325,VALID,0,VALID,24.3842,VALID,102,VALID,0.963281,
2010-03-27, 00:53:05,VALID,1000.59,VALID,0,VALID,88.8469,VALID,0,VALID,24.3647,VALID,97,VALID,0.967188,
2010-03-27, 00:54:05,VALID,1000.56,VALID,0,VALID,88.824,VALID,0,VALID,24.3647,VALID,96,VALID,0.7125,
2010-03-27, 00:55:05,VALID,1000.55,VALID,0,VALID,88.9385,VALID,0,VALID,24.3452,VALID,96,VALID,0.485156,
2010-03-27, 00:56:05,VALID,1000.58,VALID,0,VALID,88.9537,VALID,0,VALID,24.3452,VALID,96,VALID,0.325391,
2010-03-27, 00:57:05,VALID,1000.55,VALID,0,VALID,89.0834,VALID,0,VALID,24.3452,VALID,96,VALID,0.028125,
2010-03-27, 00:58:05,VALID,1000.54,VALID,0,VALID,89.1292,VALID,0,VALID,24.3257,VALID,96,VALID,0,
2010-03-27, 00:59:05,VALID,1000.57,VALID,0,VALID,89.1445,VALID,0,VALID,24.3257,VALID,96,VALID,0,
2010-03-27, 01:00:05,VALID,1000.56,VALID,0,VALID,89.1597,VALID,0,VALID,24.3062,VALID,96,VALID,0.281641,
2010-03-27, 01:01:05,VALID,1000.56,VALID,0,VALID,89.0682,VALID,0,VALID,24.2671,VALID,100,VALID,0.403906,
2010-03-27, 01:02:05,VALID,1000.58,VALID,0,VALID,88.9919,VALID,0,VALID,24.2458,VALID,99,VALID,0.737109,
2010-03-27, 01:03:05,VALID,1000.56,VALID,0,VALID,89.0377,VALID,0,VALID,24.2476,VALID,94,VALID,0.864844,
2010-03-27, 01:04:05,VALID,1000.56,VALID,0,VALID,88.9766,VALID,0,VALID,24.2476,VALID,96,VALID,0.799219,
2010-03-27, 01:05:05,VALID,1000.54,VALID,0,VALID,88.9003,VALID,0,VALID,24.2476,VALID,96,VALID,0.422656,
2010-03-27, 01:06:05,VALID,1000.5,VALID,0,VALID,88.8469,VALID,0,VALID,24.2476,VALID,96,VALID,0.306641,
2010-03-27, 01:07:05,VALID,1000.48,VALID,0,VALID,88.824,VALID,0,VALID,24.2671,VALID,96,VALID,0.266406,
2010-03-27, 01:08:05,VALID,1000.49,VALID,0,VALID,88.763,VALID,0,VALID,24.2476,VALID,96,VALID,0.217187,
2010-03-27, 01:09:05,VALID,1000.44,VALID,0,VALID,88.6867,VALID,0,VALID,24.2671,VALID,96,VALID,0.294922,
2010-03-27, 01:10:05,VALID,1000.43,VALID,0,VALID,88.5723,VALID,0,VALID,24.2263,VALID,96,VALID,0.303125,
2010-03-27, 01:11:05,VALID,1000.41,VALID,0,VALID,88.496,VALID,0,VALID,24.2476,VALID,96,VALID,0.270312,
2010-03-27, 01:12:05,VALID,1000.38,VALID,0,VALID,88.3739,VALID,0,VALID,24.2263,VALID,97,VALID,0.585547,
2010-03-27, 01:13:05,VALID,1000.42,VALID,0,VALID,88.3434,VALID,0,VALID,24.2476,VALID,107,VALID,0.683984,
2010-03-27, 01:14:05,VALID,1000.42,VALID,0,VALID,88.145,VALID,0,VALID,24.2458,VALID,91,VALID,0.671875,
2010-03-27, 01:15:05,VALID,1000.43,VALID,0,VALID,87.9848,VALID,0,VALID,24.2671,VALID,91,VALID,0.594531,
2010-03-27, 01:16:05,VALID,1000.39,VALID,0,VALID,87.9314,VALID,0,VALID,24.2866,VALID,91,VALID,0.382813,
2010-03-27, 01:17:05,VALID,1000.4,VALID,0,VALID,87.8474,VALID,0,VALID,24.2866,VALID,91,VALID,0.284766,
2010-03-27, 01:18:05,VALID,1000.38,VALID,0,VALID,87.8474,VALID,0,VALID,24.2866,VALID,91,VALID,0.325391,
2010-03-27, 01:19:05,VALID,1000.37,VALID,0,VALID,87.8551,VALID,0,VALID,24.2866,VALID,91,VALID,0.214062,
2010-03-27, 01:20:05,VALID,1000.38,VALID,0,VALID,87.8551,VALID,0,VALID,24.2866,VALID,91,VALID,0.139844,
2010-03-27, 01:21:05,VALID,1000.38,VALID,0,VALID,87.9543,VALID,0,VALID,24.2458,VALID,91,VALID,0.220703,
2010-03-27, 01:22:05,VALID,1000.38,VALID,0,VALID,87.9924,VALID,0,VALID,24.2671,VALID,91,VALID,0.122656,
2010-03-27, 01:23:05,VALID,1000.36,VALID,0,VALID,88.0382,VALID,0,VALID,24.2671,VALID,91,VALID,0.316406,
2010-03-27, 01:24:05,VALID,1000.37,VALID,0,VALID,88.0382,VALID,0,VALID,24.2671,VALID,91,VALID,0.130859,
2010-03-27, 01:25:05,VALID,1000.36,VALID,0,VALID,88,VALID,0,VALID,24.2671,VALID,91,VALID,0,
2010-03-27, 01:26:05,VALID,1000.38,VALID,0,VALID,87.9237,VALID,0,VALID,24.2281,VALID,91,VALID,0,
2010-03-27, 01:27:05,VALID,1000.37,VALID,0,VALID,87.8932,VALID,0,VALID,24.2086,VALID,91,VALID,0,
2010-03-27, 01:28:05,VALID,1000.34,VALID,0,VALID,87.9237,VALID,0,VALID,24.2086,VALID,91,VALID,0,
2010-03-27, 01:29:05,VALID,1000.34,VALID,0,VALID,87.9619,VALID,0,VALID,24.1677,VALID,91,VALID,0,
2010-03-27, 01:30:05,VALID,1000.33,VALID,0,VALID,88.0763,VALID,0,VALID,24.1696,VALID,91,VALID,0,
2010-03-27, 01:31:05,VALID,1000.34,VALID,0,VALID,88.1832,VALID,0,VALID,24.1696,VALID,91,VALID,0.0105469,
2010-03-27, 01:32:05,VALID,1000.32,VALID,0,VALID,88.1984,VALID,0,VALID,24.1696,VALID,90,VALID,0.125,
2010-03-27, 01:33:05,VALID,1000.29,VALID,0,VALID,88.1755,VALID,0,VALID,24.1482,VALID,91,VALID,0,
2010-03-27, 01:34:05,VALID,1000.28,VALID,0,VALID,88.1526,VALID,0,VALID,24.1287,VALID,90,VALID,0,
2010-03-27, 01:35:05,VALID,1000.28,VALID,0,VALID,88.1221,VALID,0,VALID,24.15,VALID,55,VALID,0,
2010-03-27, 01:36:05,VALID,1000.28,VALID,0,VALID,88.0229,VALID,0,VALID,24.15,VALID,56,VALID,0,
2010-03-27, 01:37:05,VALID,1000.27,VALID,0,VALID,87.9543,VALID,0,VALID,24.1696,VALID,55,VALID,0,
2010-03-27, 01:38:05,VALID,1000.25,VALID,0,VALID,87.9085,VALID,0,VALID,24.1677,VALID,55,VALID,0,
2010-03-27, 01:39:05,VALID,1000.24,VALID,0,VALID,87.8093,VALID,0,VALID,24.1696,VALID,56,VALID,0,
2010-03-27, 01:40:05,VALID,1000.22,VALID,0,VALID,87.7101,VALID,0,VALID,24.1696,VALID,56,VALID,0,
2010-03-27, 01:41:05,VALID,1000.18,VALID,0,VALID,87.6414,VALID,0,VALID,24.1677,VALID,78,VALID,0.175,
2010-03-27, 01:42:05,VALID,1000.17,VALID,0,VALID,87.588,VALID,0,VALID,24.1696,VALID,101,VALID,0.659375,
2010-03-27, 01:43:05,VALID,1000.16,VALID,0,VALID,87.588,VALID,0,VALID,24.1696,VALID,115,VALID,0.529297,
2010-03-27, 01:44:05,VALID,1000.16,VALID,0,VALID,87.672,VALID,0,VALID,24.1677,VALID,117,VALID,0.513281,
2010-03-27, 01:45:05,VALID,1000.2,VALID,0,VALID,87.6872,VALID,0,VALID,24.1891,VALID,117,VALID,0.44375,
2010-03-27, 01:46:05,VALID,1000.2,VALID,0,VALID,87.8398,VALID,0,VALID,24.1677,VALID,117,VALID,0.304297,
2010-03-27, 01:47:05,VALID,1000.17,VALID,0,VALID,88.0229,VALID,0,VALID,24.2086,VALID,117,VALID,0.370703,
2010-03-27, 01:48:05,VALID,1000.18,VALID,0,VALID,88.0153,VALID,0,VALID,24.2067,VALID,117,VALID,0.251172,
2010-03-27, 01:49:05,VALID,1000.18,VALID,0,VALID,87.9314,VALID,0,VALID,24.2281,VALID,117,VALID,0.126563,
2010-03-27, 01:50:05,VALID,1000.18,VALID,0,VALID,87.8856,VALID,0,VALID,24.2281,VALID,117,VALID,0,
2010-03-27, 01:51:05,VALID,1000.17,VALID,0,VALID,87.8322,VALID,0,VALID,24.2086,VALID,117,VALID,0.178125,
2010-03-27, 01:52:05,VALID,1000.2,VALID,0,VALID,87.7635,VALID,0,VALID,24.1872,VALID,117,VALID,0.222266,
2010-03-27, 01:53:05,VALID,1000.17,VALID,0,VALID,87.6796,VALID,0,VALID,24.2067,VALID,117,VALID,0.233594,
2010-03-27, 01:54:05,VALID,1000.18,VALID,0,VALID,87.6491,VALID,0,VALID,24.2086,VALID,117,VALID,0.222266,
2010-03-27, 01:55:05,VALID,1000.2,VALID,0,VALID,87.6033,VALID,0,VALID,24.1872,VALID,117,VALID,0,
2010-03-27, 01:56:05,VALID,1000.18,VALID,0,VALID,87.4889,VALID,0,VALID,24.2086,VALID,117,VALID,0,
2010-03-27, 01:57:05,VALID,1000.16,VALID,0,VALID,87.4202,VALID,0,VALID,24.1872,VALID,117,VALID,0.114063,
2010-03-27, 01:58:05,VALID,1000.16,VALID,0,VALID,87.2142,VALID,0,VALID,24.2086,VALID,120,VALID,0,
2010-03-27, 01:59:05,VALID,1000.14,VALID,0,VALID,87.0692,VALID,0,VALID,24.2086,VALID,120,VALID,0,
2010-03-27, 02:00:05,VALID,1000.15,VALID,0,VALID,86.9777,VALID,0,VALID,24.2086,VALID,120,VALID,0,
2010-03-27, 02:01:05,VALID,1000.15,VALID,0,VALID,86.909,VALID,0,VALID,24.2067,VALID,119,VALID,0,
2010-03-27, 02:02:05,VALID,1000.11,VALID,0,VALID,86.8861,VALID,0,VALID,24.2263,VALID,119,VALID,0,
2010-03-27, 02:03:05,VALID,1000.13,VALID,0,VALID,86.8556,VALID,0,VALID,24.2263,VALID,106,VALID,0.411719,
2010-03-27, 02:04:05,VALID,1000.1,VALID,0,VALID,86.8327,VALID,0,VALID,24.2476,VALID,93,VALID,0.773047,
2010-03-27, 02:05:05,VALID,1000.08,VALID,0,VALID,86.8098,VALID,0,VALID,24.2476,VALID,96,VALID,0.669922,
2010-03-27, 02:06:05,VALID,1000.11,VALID,0,VALID,86.8785,VALID,0,VALID,24.2281,VALID,113,VALID,0.747266,
2010-03-27, 02:07:05,VALID,1000.1,VALID,0,VALID,86.9243,VALID,0,VALID,24.2281,VALID,126,VALID,0.983203,
2010-03-27, 02:08:05,VALID,1000.1,VALID,0,VALID,86.9777,VALID,0,VALID,24.2086,VALID,131,VALID,0.808984,
2010-03-27, 02:09:05,VALID,1000.09,VALID,0,VALID,87.0006,VALID,0,VALID,24.2086,VALID,134,VALID,0.771875,
2010-03-27, 02:10:05,VALID,1000.1,VALID,0,VALID,87.0997,VALID,0,VALID,24.2086,VALID,134,VALID,0.873828,
2010-03-27, 02:11:05,VALID,1000.06,VALID,0,VALID,87.2294,VALID,0,VALID,24.1872,VALID,137,VALID,0.878906,
2010-03-27, 02:12:05,VALID,1000.07,VALID,0,VALID,87.115,VALID,0,VALID,24.2086,VALID,143,VALID,0.848047,
2010-03-27, 02:13:05,VALID,1000.04,VALID,0,VALID,86.97,VALID,0,VALID,24.2086,VALID,154,VALID,0.769141,
2010-03-27, 02:14:05,VALID,1000.04,VALID,0,VALID,86.8709,VALID,0,VALID,24.2281,VALID,154,VALID,0.645312,
2010-03-27, 02:15:05,VALID,1000.02,VALID,0,VALID,86.642,VALID,0,VALID,24.2281,VALID,167,VALID,0.729297,
2010-03-27, 02:16:05,VALID,1000,VALID,0,VALID,86.4665,VALID,0,VALID,24.2476,VALID,166,VALID,0.678516,
2010-03-27, 02:17:05,VALID,999.999,VALID,0,VALID,86.291,VALID,0,VALID,24.2476,VALID,165,VALID,0.713281,
2010-03-27, 02:18:05,VALID,999.998,VALID,0,VALID,86.2071,VALID,0,VALID,24.2263,VALID,165,VALID,0.543359,
2010-03-27, 02:19:05,VALID,999.977,VALID,0,VALID,85.9477,VALID,0,VALID,24.2671,VALID,144,VALID,1.01758,
2010-03-27, 02:20:05,VALID,1000.01,VALID,0,VALID,85.7493,VALID,0,VALID,24.2866,VALID,178,VALID,0.8875,
2010-03-27, 02:21:05,VALID,999.988,VALID,0,VALID,85.5509,VALID,0,VALID,24.3062,VALID,158,VALID,1.31914,
2010-03-27, 02:22:05,VALID,999.958,VALID,0,VALID,85.2763,VALID,0,VALID,24.3452,VALID,164,VALID,1.31133,
2010-03-27, 02:23:05,VALID,999.962,VALID,0,VALID,85.467,VALID,0,VALID,24.3824,VALID,166,VALID,1.17578,
2010-03-27, 02:24:05,VALID,999.931,VALID,0,VALID,85.3373,VALID,0,VALID,24.4428,VALID,173,VALID,1.27891,
2010-03-27, 02:25:05,VALID,999.908,VALID,0,VALID,85.1771,VALID,0,VALID,24.4604,VALID,175,VALID,1.13086,
2010-03-27, 02:26:05,VALID,999.892,VALID,0,VALID,85.261,VALID,0,VALID,24.5013,VALID,167,VALID,1.17813,
2010-03-27, 02:27:05,VALID,999.926,VALID,0,VALID,85.3755,VALID,0,VALID,24.5404,VALID,170,VALID,1.09492,
2010-03-27, 02:28:05,VALID,999.933,VALID,0,VALID,85.3678,VALID,0,VALID,24.5404,VALID,165,VALID,0.883984,
2010-03-27, 02:29:05,VALID,999.916,VALID,0,VALID,85.7417,VALID,0,VALID,24.5599,VALID,159,VALID,0.773047,
2010-03-27, 02:30:05,VALID,999.916,VALID,0,VALID,85.9095,VALID,0,VALID,24.5599,VALID,141,VALID,0.592969,
2010-03-27, 02:31:05,VALID,999.934,VALID,0,VALID,86.085,VALID,0,VALID,24.519,VALID,140,VALID,0.658203,
2010-03-27, 02:32:05,VALID,999.934,VALID,0,VALID,86.1994,VALID,0,VALID,24.5013,VALID,135,VALID,0.666406,
2010-03-27, 02:33:05,VALID,999.961,VALID,0,VALID,86.1003,VALID,0,VALID,24.4019,VALID,117,VALID,0.578516,
2010-03-27, 02:34:05,VALID,999.939,VALID,0,VALID,85.9706,VALID,0,VALID,24.3842,VALID,85,VALID,0.716406,
2010-03-27, 02:35:05,VALID,999.962,VALID,0,VALID,85.94,VALID,0,VALID,24.2848,VALID,72,VALID,0.782031,
2010-03-27, 02:36:05,VALID,999.97,VALID,0,VALID,86.1766,VALID,0,VALID,24.2458,VALID,59,VALID,0.776953,
2010-03-27, 02:37:05,VALID,1000.01,VALID,0,VALID,86.3902,VALID,0,VALID,24.1872,VALID,59,VALID,0.528516,
2010-03-27, 02:38:05,VALID,1000,VALID,0,VALID,86.642,VALID,0,VALID,24.1677,VALID,60,VALID,0.489453,
2010-03-27, 02:39:05,VALID,1000.01,VALID,0,VALID,86.909,VALID,0,VALID,24.1287,VALID,60,VALID,0.469922,
2010-03-27, 02:40:04,VALID,1000.03,VALID,0,VALID,87.115,VALID,0,VALID,24.1092,VALID,60,VALID,0.453906,
2010-03-27, 02:41:04,VALID,1000.03,VALID,0,VALID,87.2447,VALID,0,VALID,24.0701,VALID,60,VALID,0.452344,
2010-03-27, 02:42:04,VALID,1000.03,VALID,0,VALID,87.3592,VALID,0,VALID,24.0506,VALID,60,VALID,0.389844,
2010-03-27, 02:43:04,VALID,1000.01,VALID,0,VALID,87.466,VALID,0,VALID,24.0329,VALID,60,VALID,0.376563,
2010-03-27, 02:44:04,VALID,1000.03,VALID,0,VALID,87.527,VALID,0,VALID,24.0134,VALID,60,VALID,0.452734,
2010-03-27, 02:45:04,VALID,1000,VALID,0,VALID,87.5651,VALID,0,VALID,23.9726,VALID,60,VALID,0.259375,
2010-03-27, 02:46:04,VALID,1000.03,VALID,0,VALID,87.5651,VALID,0.112286,VALID,23.9531,VALID,60,VALID,0.150781,
2010-03-27, 02:47:04,VALID,1000.03,VALID,0,VALID,87.588,VALID,0,VALID,23.9531,VALID,60,VALID,0.289453,
2010-03-27, 02:48:04,VALID,1000.07,VALID,0,VALID,87.5728,VALID,0,VALID,23.9336,VALID,60,VALID,0.335938,
2010-03-27, 02:49:04,VALID,1000.07,VALID,0,VALID,87.588,VALID,0,VALID,23.9336,VALID,59,VALID,0.310156,
2010-03-27, 02:50:04,VALID,1000.04,VALID,0,VALID,87.5651,VALID,0,VALID,23.9336,VALID,57,VALID,0.239453,
2010-03-27, 02:51:04,VALID,1000.04,VALID,0,VALID,87.5423,VALID,0,VALID,23.9549,VALID,57,VALID,0.151172,
2010-03-27, 02:52:04,VALID,1000.02,VALID,0,VALID,87.5194,VALID,0,VALID,23.9336,VALID,57,VALID,0.177344,
2010-03-27, 02:53:04,VALID,1000.03,VALID,0,VALID,87.5117,VALID,0,VALID,23.9336,VALID,57,VALID,0.207813,
2010-03-27, 02:54:04,VALID,1000.02,VALID,0,VALID,87.4736,VALID,0,VALID,23.9336,VALID,57,VALID,0.126172,
2010-03-27, 02:55:04,VALID,999.999,VALID,0,VALID,87.4278,VALID,0,VALID,23.9531,VALID,57,VALID,0.164453,
2010-03-27, 02:56:04,VALID,1000.03,VALID,0,VALID,87.3515,VALID,0,VALID,23.9531,VALID,57,VALID,0.121875,
2010-03-27, 02:57:04,VALID,1000.03,VALID,0,VALID,87.2905,VALID,0.112286,VALID,23.9531,VALID,57,VALID,0.160547,
2010-03-27, 02:58:04,VALID,1000.03,VALID,0,VALID,87.26,VALID,0,VALID,23.9939,VALID,57,VALID,0.0140625,
2010-03-27, 02:59:04,VALID,1000.03,VALID,0,VALID,87.1532,VALID,0,VALID,23.9726,VALID,57,VALID,0.208203,
2010-03-27, 03:00:04,VALID,1000.03,VALID,0,VALID,87.054,VALID,0,VALID,23.9921,VALID,57,VALID,0.357812,
2010-03-27, 03:01:04,VALID,1000.01,VALID,0,VALID,86.8632,VALID,0,VALID,23.9921,VALID,57,VALID,0.217969,
2010-03-27, 03:02:04,VALID,1000.03,VALID,0,VALID,86.7717,VALID,0,VALID,24.0311,VALID,57,VALID,0.009375,
2010-03-27, 03:03:04,VALID,1000,VALID,0,VALID,86.7183,VALID,0.112286,VALID,24.0311,VALID,57,VALID,0,
2010-03-27, 03:04:04,VALID,1000.04,VALID,0,VALID,86.7869,VALID,0,VALID,24.0506,VALID,57,VALID,0.151562,
2010-03-27, 03:05:04,VALID,999.993,VALID,0,VALID,86.9777,VALID,0,VALID,24.0701,VALID,57,VALID,0.223047,
2010-03-27, 03:06:04,VALID,1000.03,VALID,0,VALID,87.0082,VALID,0.112286,VALID,24.0878,VALID,57,VALID,0.232031,
2010-03-27, 03:07:04,VALID,1000.05,VALID,0,VALID,87.0463,VALID,0.112286,VALID,24.1287,VALID,57,VALID,0.148438,
2010-03-27, 03:08:04,VALID,1000.02,VALID,0,VALID,87.2447,VALID,0,VALID,24.1287,VALID,57,VALID,0.223047,
2010-03-27, 03:09:04,VALID,1000.01,VALID,0,VALID,87.6186,VALID,0,VALID,24.1677,VALID,57,VALID,0.182422,
2010-03-27, 03:10:04,VALID,999.986,VALID,0,VALID,87.7635,VALID,0.112286,VALID,24.1482,VALID,57,VALID,0.000390625,
2010-03-27, 03:11:04,VALID,999.993,VALID,0,VALID,87.9085,VALID,0,VALID,24.1482,VALID,57,VALID,0.128516,
2010-03-27, 03:12:04,VALID,999.982,VALID,0,VALID,88.0229,VALID,0,VALID,24.1677,VALID,57,VALID,0.238672,
2010-03-27, 03:13:04,VALID,999.961,VALID,0,VALID,88.0992,VALID,0.112286,VALID,24.1482,VALID,57,VALID,0.155469,
2010-03-27, 03:14:04,VALID,999.955,VALID,0,VALID,88.1832,VALID,0,VALID,24.15,VALID,57,VALID,0.269531,
2010-03-27, 03:15:04,VALID,999.943,VALID,0,VALID,88.3434,VALID,0,VALID,24.1287,VALID,57,VALID,0.2875,
2010-03-27, 03:16:04,VALID,999.921,VALID,0,VALID,88.496,VALID,0.112286,VALID,24.15,VALID,57,VALID,0.408594,
2010-03-27, 03:17:04,VALID,999.909,VALID,0,VALID,88.7096,VALID,0.112286,VALID,24.1305,VALID,57,VALID,0.440234,
2010-03-27, 03:18:04,VALID,999.909,VALID,0,VALID,88.8011,VALID,0,VALID,24.1287,VALID,57,VALID,0.467578,
2010-03-27, 03:19:04,VALID,999.902,VALID,0,VALID,88.9766,VALID,0,VALID,24.1287,VALID,57,VALID,0.556641,
2010-03-27, 03:20:04,VALID,999.883,VALID,0,VALID,89.114,VALID,0,VALID,24.1287,VALID,57,VALID,0.680469,
2010-03-27, 03:21:04,VALID,999.879,VALID,0,VALID,89.2666,VALID,0,VALID,24.1287,VALID,57,VALID,0.633594,
2010-03-27, 03:22:04,VALID,999.916,VALID,0,VALID,89.3657,VALID,0,VALID,24.1696,VALID,57,VALID,0.545703,
2010-03-27, 03:23:04,VALID,999.869,VALID,0,VALID,89.4344,VALID,0,VALID,24.1287,VALID,57,VALID,0.494531,
2010-03-27, 03:24:04,VALID,999.919,VALID,0,VALID,89.526,VALID,0.112286,VALID,24.1287,VALID,57,VALID,0.480469,
2010-03-27, 03:25:04,VALID,999.918,VALID,0,VALID,89.5107,VALID,0,VALID,24.1482,VALID,57,VALID,0.423438,
2010-03-27, 03:26:04,VALID,999.919,VALID,0,VALID,89.4954,VALID,0,VALID,24.1287,VALID,57,VALID,0.454688,
2010-03-27, 03:27:04,VALID,999.924,VALID,0,VALID,89.3123,VALID,0,VALID,24.1092,VALID,57,VALID,0.588281,
2010-03-27, 03:28:04,VALID,999.922,VALID,0,VALID,89.1979,VALID,0,VALID,24.0897,VALID,57,VALID,0.522266,
2010-03-27, 03:29:04,VALID,999.896,VALID,0,VALID,89.1063,VALID,0,VALID,24.0897,VALID,57,VALID,0.558594,
2010-03-27, 03:30:04,VALID,999.917,VALID,0,VALID,88.9843,VALID,0,VALID,24.1092,VALID,57,VALID,0.602734,
2010-03-27, 03:31:04,VALID,999.897,VALID,0,VALID,88.8774,VALID,0,VALID,24.1092,VALID,57,VALID,0.665625,
2010-03-27, 03:32:04,VALID,999.938,VALID,0,VALID,88.9766,VALID,0,VALID,24.1092,VALID,57,VALID,0.528125,
2010-03-27, 03:33:04,VALID,999.956,VALID,0,VALID,88.9232,VALID,0,VALID,24.1287,VALID,57,VALID,0.401953,
2010-03-27, 03:34:04,VALID,999.946,VALID,0,VALID,88.8393,VALID,0,VALID,24.1092,VALID,57,VALID,0.264453,
2010-03-27, 03:35:04,VALID,999.974,VALID,0,VALID,88.8164,VALID,0,VALID,24.1287,VALID,57,VALID,0.273047,
2010-03-27, 03:36:04,VALID,999.971,VALID,0,VALID,88.8774,VALID,0,VALID,24.15,VALID,57,VALID,0.132031,
2010-03-27, 03:37:04,VALID,1000,VALID,0,VALID,88.8546,VALID,0,VALID,24.1287,VALID,57,VALID,0.06875,
2010-03-27, 03:38:04,VALID,999.983,VALID,0,VALID,88.8088,VALID,0,VALID,24.1305,VALID,57,VALID,0.0566406,
2010-03-27, 03:39:04,VALID,999.99,VALID,0,VALID,88.7783,VALID,0,VALID,24.0897,VALID,57,VALID,0.213281,
2010-03-27, 03:40:04,VALID,1000.02,VALID,0,VALID,88.7477,VALID,0,VALID,24.1092,VALID,57,VALID,0.139844,
2010-03-27, 03:41:04,VALID,1000.02,VALID,0,VALID,88.7096,VALID,0,VALID,24.0897,VALID,57,VALID,0,
2010-03-27, 03:42:04,VALID,1000.03,VALID,0,VALID,88.7783,VALID,0,VALID,24.111,VALID,57,VALID,0.0769531,
2010-03-27, 03:43:04,VALID,1000.04,VALID,0,VALID,88.8393,VALID,0,VALID,24.1305,VALID,57,VALID,0.202734,
2010-03-27, 03:44:04,VALID,1000.07,VALID,0,VALID,88.9003,VALID,0,VALID,24.1696,VALID,120,VALID,0.368359,
2010-03-27, 03:45:04,VALID,1000.07,VALID,0,VALID,88.9003,VALID,0,VALID,24.1677,VALID,120,VALID,0.219922,
2010-03-27, 03:46:04,VALID,1000.05,VALID,0,VALID,88.9461,VALID,0,VALID,24.1872,VALID,120,VALID,0.360547,
2010-03-27, 03:47:04,VALID,1000.07,VALID,0,VALID,88.9232,VALID,0,VALID,24.2067,VALID,120,VALID,0.328516,